Вернуться в каталог

SL-3 R/B

АктивенPO
NORAD 7493·ROCKET BODY·🇷🇺 Russia

Запущен Oct 28, 1974 с Plesetsk Cosmodrome

Loading…

Ближайшие Пролёты (ближайшие 24 часа)

TLE

СвежийSource: Space-Track

Эпоха: Sep 14, 2026, 19:04 UTC

1 07493U 74083B   26257.79449531  .00000196  00000-0  10553-3 0  9992
2 07493  81.1572  96.2020 0079948 308.2233  51.1756 14.08041520663539

Отслеживайте SL-3 R/B в реальном времени с AllMySat

Download on the App Store